Regional Weather Roundup
Issued by NWS

Home | Current Version | Previous Version | Text Only | Print | Product List | Glossary Off
Versions: 1 2 3 4 5 6 7 8 9 10 11 12 13 14 15 16 17 18 19 20 21 22 23 24 25 26 27 28 29 30 31 32 33 34 35 36 37 38 39 40 41 42 43 44 45 46 47 48 49 50

000
ASUS43 KDTX 291510
RWRMI
MICHIGAN HOURLY REGIONAL WEATHER ROUNDUP
NATIONAL WEATHER SERVICE DETROIT/PONTIAC MI
1100 AM EDT WED MAR 29 2017

NOTE: "FAIR" INDICATES FEW OR NO CLOUDS BELOW 12,000 FEET WITH NO
SIGNIFICANT WEATHER AND/OR OBSTRUCTION TO VISIBILITY.

MIZ047>049-052>055-059>063-066>070-074>076-081>083-291600-
SOUTHEAST LOWER MICHIGAN

CITY           SKY/WX    TMP DP  RH WIND       PRES   REMARKS
ADRIAN         SUNNY     46  36  68 E10       30.28F
ALMA           SUNNY     47  33  60 N6        30.31F
ANN ARBOR      SUNNY     48  32  53 NE10      30.27F
BAD AXE        SUNNY     40  34  79 N8        30.31S WCI  35
CARO           SUNNY     45  36  70 N3        30.31S
DETROIT CITY   SUNNY     49  32  52 E9        30.30S
DETROIT          N/A    N/A N/A N/A MISG        N/A
FLINT          SUNNY     47  34  60 NE7       30.30F
GROSSE ILE     SUNNY     46  35  65 NE6       30.29S
HILLSDALE      SUNNY     46  32  57 E12       30.25R
HOWELL         SUNNY     46  33  60 NE8       30.28F

CITY           SKY/WX    TMP DP  RH WIND       PRES   REMARKS
JACKSON        SUNNY     48  33  56 E9        30.27F
LAMBERTVILLE   SUNNY     47  37  66 E7        30.27F
LANSING        SUNNY     47  34  60 NE12      30.29F
LAPEER         FAIR      47  32  55 N5        30.30F
MASON          SUNNY     46  37  69 E9        30.28F
MONROE         SUNNY     47  34  61 NE8       30.27F
MT. CLEMENS    SUNNY     48  36  62 NE7       30.28F
PONTIAC        MOSUNNY   48  32  53 NE10      30.28S
PORT HOPE        N/A     40  36  86 N5        30.31R
PORT HURON     SUNNY     46  32  57 E3        30.31S
TRI CITIES     SUNNY     45  35  68 NE6       30.32S
MIDLAND        FAIR      47  33  58 E3        30.31F
TROY           SUNNY     49  31  49 NE8       30.31S
SAGINAW HB     SUNNY     45  34  65 NE3       30.31F
$$
MIZ043>046-050>051-056>058-064>065-071>073-077>080-291600-
SOUTHWEST LOWER MICHIGAN

CITY           SKY/WX    TMP DP  RH WIND       PRES   REMARKS
BATTLE CREEK   MOSUNNY   47  32  56 E13       30.27S
BENTON HARBOR  MOSUNNY   49  34  56 E8        30.25F
BIG RAPIDS     SUNNY     46  33  60 N3        30.29F
COLDWATER      CLOUDY    47  33  57 E9        30.26R
FREMONT        FAIR      47  32  55 E5        30.29S
HOLLAND        CLOUDY    46  35  65 E10       30.28F
GRAND RAPIDS   CLOUDY    47  37  68 E8        30.28F
IONIA          FAIR      45  33  62 E8        30.28F
KALAMAZOO      MOSUNNY   47  31  53 E10       30.28S
LUDINGTON      MOSUNNY   48  34  58 NE5       30.30F
MARSHALL       SUNNY     47  33  56 E9        30.26F
MOUNT PLEASANT SUNNY     48  32  52 NE3       30.29F HAZE
MUSKEGON       PTSUNNY   48  33  56 E8        30.30S
SOUTH HAVEN    MOSUNNY   47  35  62 E9G16     30.26F
$$
MIZ016>042-291600-
NORTHERN LOWER MICHIGAN

CITY           SKY/WX    TMP DP  RH WIND       PRES   REMARKS
ALPENA         SUNNY     40  29  64 VRB7      30.37R
BEAVER ISLAND  SUNNY     36  30  80 NE10      30.36F WCI  28
BELLAIRE       SUNNY     40  32  73 NE8       30.34F WCI  35
CADILLAC       SUNNY     47  27  46 NE10      30.28F
CHARLEVOIX     SUNNY     36  32  85 E6        30.38F WCI  31
FRANKFORT      MOSUNNY   44  31  61 NE3       30.33S
GAYLORD        MOSUNNY   36  28  73 E7        30.32F WCI  30
GRAYLING       SUNNY     41  30  65 NE9       30.31F
HARBOR SPRINGS SUNNY     38  31  76 E13       30.35F WCI  30
HOUGHTON LAKE  SUNNY     43  30  60 NE7       30.31S
MANISTEE       MOSUNNY   48  31  51 E8        30.31F
OSCODA         MOSUNNY   42  31  65 NE16G22   30.33S
PELLSTON       SUNNY     38  27  64 NE9       30.37S WCI  31
ROGERS CITY    CLOUDY    37  28  71 NE6       30.39S WCI  32
TRAVERSE CITY  FOG       32  31  96 CALM      30.34R VSB 1/4
$$
MIZ007>008-015-291600-
EASTERN UPPER MICHIGAN

CITY           SKY/WX    TMP DP  RH WIND       PRES   REMARKS
KINROSS        SUNNY     35  21  56 E9        30.39R WCI  28
MACKINAC ISLAN SUNNY     34  28  76 NE8       30.38S WCI  28
NEWBERRY       SUNNY     33  24  69 NE7       30.38S WCI  27
S. S. MARIE    SUNNY     36  20  52 VRB5      30.39R WCI  32
MUNISING         N/A     32  28  85 NE13      30.39S WCI  22
$$
MIZ004>006-011>014-085-291600-
CENTRAL UPPER MICHIGAN

CITY           SKY/WX    TMP DP  RH WIND       PRES   REMARKS
MANISTIQUE     SUNNY     37  31  76 N10       30.36S WCI  30
ESCANABA       CLOUDY    36  29  75 N8        30.37F WCI  30
MENOMINEE        N/A    N/A N/A N/A MISG        N/A
SAWYER-GWINN   SUNNY     32  27  80 NE9       30.37S WCI  24
$$
MIZ001>003-009>011-084-291600-
WESTERN UPPER MICHIGAN

CITY           SKY/WX    TMP DP  RH WIND       PRES   REMARKS
IRON MOUNTAIN  MOSUNNY   38  25  59 E8        30.33S WCI  32
HOUGHTON       CLOUDY    33  25  72 E12       30.38S WCI  24
COPPER HARBOR    N/A     35  24  64 SE8       30.42R WCI  29
IRONWOOD       PTSUNNY   41  27  57 E8        30.31F
$$

ABBREVIATIONS USED IN REMARKS
   TC - TEMPERATURE IN CELSIUS
  WCI - WIND CHILL INDEX
   HX - HEAT INDEX
  VSB - VISIBILITY




USA.gov is the U.S. government's official web portal to all federal, state and local government web resources and services.